Date,TemperatureHighF,TemperatureAvgF,TemperatureLowF,DewpointHighF,DewpointAvgF,DewpointLowF,HumidityHigh,HumidityAvg,HumidityLow,PressureMaxIn,PressureMinIn,WindSpeedMaxMPH,WindSpeedAvgMPH,GustSpeedMaxMPH,PrecipitationSumIn
2012-1-1,63.9,53.0,42.4,59.9,38.4,22.2,89,59,39,30.53,30.01,18,2,18,0.00
2012-1-2,42.4,38.1,32.8,23.1,15.7,7.5,56,40,30,30.61,30.49,18,2,18,0.00
2012-1-3,40.1,30.2,18.9,19.8,13.9,7.9,84,53,29,30.75,30.44,5,0,5,0.00
2012-1-4,54.2,39.1,26.5,39.9,28.8,15.4,93,67,50,30.48,30.24,14,0,14,0.00
2012-1-5,60.7,40.5,25.7,40.2,30.0,24.2,95,71,32,30.41,30.18,9,0,9,0.00
2012-1-6,70.2,50.6,29.9,56.4,44.3,27.8,94,81,56,30.20,30.00,13,0,13,0.00
2012-1-7,59.7,55.6,52.4,56.7,49.6,33.8,95,81,49,30.20,30.02,7,0,7,0.01
2012-1-8,56.6,51.4,45.8,50.0,42.6,34.1,89,72,50,30.26,30.16,6,0,6,0.06
2012-1-9,54.4,50.3,46.8,48.7,45.5,42.1,91,84,73,30.28,30.15,8,0,8,0.02
2012-1-10,57.9,54.0,49.3,56.4,50.1,41.7,95,87,74,30.17,29.68,11,1,11,0.54
2012-1-11,57.1,46.8,42.4,55.7,45.6,41.1,96,95,93,29.79,29.63,6,0,6,0.01
2012-1-12,46.5,34.2,27.4,45.1,26.9,16.0,96,75,53,30.20,29.77,21,2,21,0.01
2012-1-13,40.9,30.3,21.3,21.7,18.7,14.6,89,64,35,30.37,30.19,11,0,11,0.00
2012-1-14,55.5,41.6,21.9,32.5,27.4,19.7,92,60,37,30.44,30.16,15,0,15,0.00
2012-1-15,55.3,45.1,27.2,37.0,30.4,23.0,92,58,39,30.60,30.31,20,2,20,0.00
2012-1-16,67.0,61.0,53.3,58.9,51.3,36.5,79,71,51,30.31,30.02,28,6,28,0.00
2012-1-17,71.2,56.0,32.9,64.4,47.4,23.1,87,73,54,30.39,29.96,27,3,27,0.03
2012-1-18,42.9,33.4,25.9,27.7,23.4,20.3,89,68,43,30.49,30.21,10,0,10,0.00
2012-1-19,60.2,44.8,26.4,49.7,36.7,23.9,94,75,42,30.24,29.97,19,1,19,0.02
2012-1-20,65.9,55.7,41.3,63.1,52.6,39.7,95,89,82,30.07,29.82,14,1,14,0.01
2012-1-21,64.6,37.6,34.4,60.3,34.7,31.3,95,89,80,30.21,29.87,16,1,16,0.06
2012-1-22,70.9,54.2,36.5,65.2,52.0,34.9,100,92,80,30.14,29.70,29,4,29,0.43
2012-1-23,59.4,48.0,33.0,57.6,40.3,30.4,95,76,54,30.22,29.76,12,1,12,0.01
2012-1-24,61.4,44.4,28.2,42.9,31.8,26.9,96,67,28,30.39,30.21,9,0,9,0.00
2012-1-25,48.9,48.3,46.1,42.6,37.8,33.8,87,67,57,30.28,30.18,6,0,6,0.09
2012-1-27,56.4,42.8,31.8,42.3,36.6,30.5,96,81,45,30.18,29.96,5,0,0,0.00
2012-1-28,49.2,41.1,25.9,41.9,29.1,16.3,95,66,28,30.53,30.12,9,1,0,0.01
2012-1-29,56.4,38.7,23.3,33.0,26.8,-99.9,95,68,32,30.58,30.40,3,0,0,0.00
2012-1-30,65.4,47.7,29.5,33.8,29.8,26.6,91,56,25,30.46,30.28,12,1,0,0.00
2012-1-31,70.6,59.4,49.9,56.4,47.7,29.9,78,66,41,30.31,30.15,11,3,0,0.00
2012-2-1,69.8,60.5,45.4,60.7,56.1,44.1,95,86,67,30.23,30.06,5,0,0,0.89
2012-2-2,67.5,53.2,42.3,53.0,42.7,-99.9,96,73,34,30.36,30.23,5,0,2,0.01
2012-2-3,56.4,53.6,48.3,53.7,45.2,36.8,93,74,51,30.33,30.17,16,2,16,0.03
2012-2-4,61.7,57.1,49.6,60.0,55.2,46.4,95,93,88,30.22,30.07,13,2,13,0.74
2012-2-5,50.0,46.3,40.5,46.4,41.8,38.9,100,84,76,30.36,30.21,13,1,13,0.00
2012-2-6,54.2,44.2,32.3,41.2,36.8,30.5,95,77,46,30.41,30.27,9,0,9,0.00
2012-2-7,56.4,43.3,28.6,41.5,34.3,27.4,95,74,42,30.39,30.28,5,0,10,0.00
2012-2-8,47.2,42.7,37.6,41.2,36.0,30.7,94,77,67,30.49,30.36,7,1,11,0.01
2012-2-9,44.7,38.3,30.2,32.0,29.6,27.0,90,72,54,30.50,30.34,7,0,7,0.00
2012-2-10,41.1,36.4,30.1,39.7,33.6,27.3,95,89,79,30.34,30.15,16,1,16,0.10
2012-2-11,36.4,28.2,19.6,31.4,17.0,11.7,85,63,46,30.72,30.26,21,3,21,0.00
2012-2-12,39.1,27.7,19.7,16.9,12.5,7.5,85,55,28,30.77,30.51,10,0,10,0.00
2012-2-13,39.7,32.7,20.5,36.3,24.2,15.4,94,73,40,30.51,30.02,14,2,14,0.29
2012-2-14,48.3,35.1,31.5,40.2,21.9,-99.9,95,80,71,30.21,30.00,9,-108,9,0.02
2012-2-15,56.9,47.7,33.9,50.9,44.8,32.4,95,90,74,30.22,30.04,14,1,14,0.18
2012-2-16,55.0,51.5,48.7,51.4,48.8,46.5,96,91,77,30.28,30.06,11,1,11,0.02
2012-7-4,99.2,90.3,76.7,76.2,70.9,65.8,83,55,34,29.77,29.67,5,0,5,0.00
2012-7-5,100.7,86.6,73.1,78.0,72.1,65.9,94,66,33,29.80,29.67,7,0,7,0.00
2012-7-6,100.4,83.8,73.0,79.8,74.3,70.1,94,76,41,29.79,29.65,16,1,16,0.16
2012-7-7,97.4,83.0,72.2,80.5,73.9,70.2,95,76,47,29.78,29.66,13,0,14,0.00
2012-7-8,84.4,77.8,73.9,76.8,73.1,71.2,94,86,69,29.81,29.68,11,1,13,0.06
2012-7-9,81.9,76.4,73.7,75.6,73.4,71.4,95,90,77,29.76,29.66,7,0,7,0.85
2012-7-10,88.1,77.8,71.2,76.3,73.0,69.7,96,86,61,29.73,29.65,10,0,11,0.07
2012-7-11,81.2,76.0,72.6,74.9,72.4,70.8,94,89,78,29.76,29.69,10,0,11,0.01
2012-7-12,80.1,75.3,72.6,74.5,72.4,70.8,95,91,80,29.75,29.69,7,0,7,0.05
2012-7-13,85.7,76.1,72.2,76.0,72.5,70.7,95,89,66,29.83,29.73,8,0,11,0.03
2012-7-14,84.4,76.5,71.7,78.0,73.2,70.2,95,90,74,29.85,29.76,11,0,12,0.10
2012-7-15,88.2,78.1,72.1,76.9,73.4,70.3,95,86,64,29.89,29.78,12,1,12,0.00
2012-7-16,89.7,81.1,72.4,79.0,74.3,70.7,95,81,61,29.84,29.71,7,0,8,0.00
2012-7-17,94.7,82.6,72.9,81.6,75.6,71.4,96,81,51,29.79,29.65,8,0,8,0.01
2012-7-18,97.7,85.6,74.2,81.2,75.9,71.0,95,75,46,29.79,29.64,16,1,16,0.00
2012-7-19,96.2,85.7,74.6,82.0,76.0,69.9,92,74,53,29.79,29.63,11,1,14,0.00
2012-7-20,99.2,87.5,77.3,80.7,75.9,71.2,91,70,46,29.70,29.61,7,0,7,0.00
2012-7-21,91.3,82.7,75.9,80.7,76.1,73.4,94,81,60,29.74,29.66,15,0,15,0.00
2012-8-11,76.7,69.6,64.9,62.0,59.9,58.8,82,72,57,29.76,29.72,0,0,0,0.00
2012-8-12,90.4,73.5,57.4,65.6,60.4,55.4,94,68,35,29.83,29.70,7,0,8,0.00
2012-8-13,89.5,78.5,71.7,76.4,70.1,64.4,93,76,56,29.73,29.56,10,1,13,0.07
2012-8-14,84.7,74.9,65.0,70.0,65.8,62.9,94,75,52,29.76,29.66,8,0,9,0.00
2012-8-15,88.5,78.4,66.1,71.3,66.7,63.0,93,70,44,29.78,29.67,10,0,10,0.00
2012-8-16,96.4,82.4,68.9,77.3,71.9,66.7,94,73,44,29.77,29.61,9,0,10,0.00
2012-8-17,81.1,75.4,71.8,75.8,70.8,69.5,93,86,70,29.79,29.68,10,0,12,0.11
2012-8-18,78.2,72.9,66.9,70.1,65.9,60.3,92,79,55,29.75,29.63,7,0,8,0.00
2012-8-19,85.6,74.7,64.0,64.4,59.8,54.3,94,64,35,29.70,29.62,11,0,11,0.00
2012-8-20,88.3,75.4,63.5,62.9,59.1,52.3,86,60,30,29.74,29.66,10,0,10,0.00
2012-8-21,89.3,73.7,57.5,66.1,56.7,49.0,95,62,26,29.82,29.73,8,0,9,0.00
2012-8-22,91.9,75.2,58.9,66.1,59.0,53.5,94,63,28,29.89,29.77,7,0,7,0.00
2012-8-23,92.6,76.4,60.7,68.1,62.2,58.3,94,66,32,29.89,29.76,7,0,7,0.00
2012-8-24,90.4,77.3,62.8,68.2,62.1,58.8,94,64,36,29.85,29.73,17,2,17,0.00
2012-8-25,75.9,71.8,69.2,71.9,67.8,63.1,93,87,76,29.83,29.74,14,2,15,0.13
2012-8-26,90.0,78.7,68.8,74.5,70.3,66.7,94,77,50,29.89,29.74,12,1,12,0.00
2012-8-27,93.6,81.7,68.8,74.1,70.1,66.7,94,71,43,29.84,29.68,8,0,8,0.00
2012-8-28,93.3,83.7,74.8,75.4,71.6,63.1,90,69,49,29.75,29.62,12,1,12,0.00
2012-8-29,94.6,84.4,73.5,74.1,68.2,61.9,74,59,42,29.69,29.56,13,1,13,0.00
2012-8-30,85.6,79.1,75.9,74.9,72.7,70.1,93,81,63,29.69,29.58,18,3,23,0.23
2012-8-31,90.2,82.4,77.4,76.8,75.1,72.0,90,79,61,29.77,29.67,24,7,24,0.02
2012-9-1,92.2,82.9,71.3,77.1,74.5,69.0,93,77,57,29.82,29.65,23,4,23,0.83
2012-9-2,92.3,81.8,73.9,79.6,75.6,71.6,93,83,59,29.70,29.53,12,0,16,1.54
2012-9-3,92.5,81.5,72.4,78.1,74.2,70.6,95,80,54,29.67,29.57,7,0,9,0.01
2012-9-4,90.6,81.1,72.1,77.6,73.8,70.0,94,80,57,29.67,29.58,9,0,9,0.00
2012-9-5,97.8,82.3,72.6,80.0,73.8,69.5,94,78,46,29.64,29.52,24,1,24,0.03
2012-9-6,94.7,82.2,71.3,78.8,73.4,69.1,93,76,52,29.78,29.60,18,1,18,0.87
2012-9-7,93.1,80.3,69.2,79.6,73.1,67.4,94,80,56,29.73,29.48,12,2,15,0.33
2012-9-8,76.2,70.0,58.5,69.4,62.1,54.8,94,78,49,29.78,29.57,16,1,16,0.46
2012-9-9,80.5,66.7,54.2,63.7,57.1,52.5,94,74,39,29.86,29.76,6,0,6,0.00
2012-9-10,80.2,68.4,56.7,61.7,57.2,53.3,94,70,41,29.94,29.83,8,0,8,0.00
2012-9-11,84.3,70.2,55.8,65.2,58.9,54.1,94,71,37,29.95,29.85,8,0,10,0.00
2012-9-12,82.7,73.2,63.8,66.9,62.7,57.1,92,72,43,29.99,29.86,12,1,12,0.00
2012-9-13,85.7,75.7,65.5,69.0,65.2,62.5,93,71,47,29.98,29.86,11,2,11,0.11
2012-9-14,82.3,75.5,69.4,71.5,67.5,65.5,92,77,61,29.98,29.91,7,0,7,0.00
2012-9-15,84.1,74.4,67.6,70.6,67.3,63.4,93,80,51,29.96,29.85,6,0,6,0.00
2012-9-16,82.3,74.5,70.1,72.7,69.1,66.9,93,84,67,29.85,29.73,7,0,7,0.18
2012-9-17,71.4,69.4,67.5,69.6,67.5,65.7,94,94,93,29.76,29.53,4,0,4,1.97
2012-9-18,70.3,65.2,51.7,66.6,56.7,46.9,95,77,45,29.85,29.53,11,1,13,0.02
2012-9-19,72.7,59.4,47.0,56.1,48.2,42.8,95,71,36,29.95,29.83,6,0,7,0.00
2012-9-20,79.6,64.1,48.3,62.6,54.3,46.7,94,74,42,29.88,29.74,10,0,10,0.00
2012-9-21,81.0,67.2,54.5,63.4,57.5,52.5,94,74,44,29.90,29.65,19,2,19,0.01
2012-9-22,82.6,67.9,57.8,63.2,55.7,45.8,95,70,28,29.92,29.70,7,0,9,0.00
2012-9-23,71.3,63.0,54.7,54.2,45.6,41.1,77,54,34,30.03,29.91,8,0,9,0.00
2012-9-24,73.0,61.0,47.5,55.3,49.4,44.1,92,68,41,30.04,29.82,9,1,10,0.00
2012-9-25,85.4,74.1,63.2,72.3,65.7,53.8,86,75,58,29.84,29.74,14,2,14,0.00
2012-9-26,85.0,75.4,66.9,71.7,66.6,62.5,87,75,54,29.88,29.78,11,2,13,0.00
2012-9-27,85.5,72.3,62.3,71.2,65.5,60.6,94,81,50,29.92,29.78,8,0,8,0.00
2012-9-28,86.1,72.9,64.8,71.8,66.7,63.0,94,82,57,29.86,29.76,8,0,11,0.00
2012-9-29,77.6,71.2,66.0,67.4,63.4,55.8,92,77,59,29.82,29.68,8,0,8,0.00
2012-9-30,67.1,62.7,58.7,61.0,58.2,56.0,93,86,68,29.69,29.47,9,0,13,0.16
2012-10-1,67.1,60.8,57.3,61.1,57.6,55.0,94,89,76,29.51,29.30,14,1,20,0.90
2012-10-2,70.7,59.6,50.8,55.6,52.0,48.6,94,78,47,29.73,29.50,5,0,8,0.00
2012-10-3,76.2,62.0,49.4,61.9,54.6,47.7,94,79,48,29.90,29.73,8,0,12,0.00
2012-10-4,81.1,66.8,55.4,68.2,59.4,53.6,94,80,49,30.01,29.90,9,0,9,0.00
2012-10-5,81.1,67.4,49.7,67.2,60.6,47.3,94,81,58,29.94,29.69,14,1,14,0.04
2012-10-6,57.8,48.6,45.1,47.4,43.9,39.7,94,85,55,29.99,29.88,13,0,13,0.73
2012-10-7,56.8,49.8,44.8,47.1,42.8,37.5,94,78,49,30.04,29.92,9,0,9,0.01
2012-10-8,59.4,51.3,43.5,49.8,45.4,40.7,94,82,51,30.03,29.90,5,0,6,0.07
2012-10-9,65.5,52.7,39.0,54.3,46.1,37.4,100,80,54,29.94,29.75,12,1,12,0.00
2012-10-10,64.9,58.0,47.1,56.6,47.8,38.2,93,72,38,30.01,29.82,9,0,12,0.00
2012-10-11,60.7,56.2,47.8,57.7,49.8,39.2,95,80,58,30.06,29.95,7,0,7,0.30
2012-10-12,74.6,65.5,56.6,69.2,62.5,54.9,95,90,79,30.06,29.94,5,0,6,0.00
2012-10-13,81.9,72.2,64.7,69.1,64.6,62.8,94,79,53,29.97,29.75,16,2,19,0.00
2012-10-14,75.5,69.3,59.0,68.4,64.7,57.3,94,86,74,29.79,29.66,15,3,17,0.36
2012-10-15,73.6,60.7,49.0,58.3,52.4,46.6,95,78,40,29.84,29.72,5,0,6,0.00
2012-10-16,75.0,60.4,49.7,60.0,53.7,48.0,95,80,53,29.77,29.58,10,0,12,0.01
2012-10-17,78.5,66.9,53.2,66.0,58.9,51.5,94,77,58,29.60,29.27,21,5,23,1.17
2012-10-18,70.1,57.6,46.5,59.8,47.8,37.0,95,75,32,29.61,29.46,13,0,13,0.01
2012-10-19,65.8,56.1,46.4,49.2,43.7,39.9,90,66,41,29.66,29.52,6,0,7,0.00
2012-10-20,69.9,54.7,41.1,52.4,45.8,39.5,94,75,39,29.76,29.65,7,0,7,0.00
2012-10-21,79.3,63.0,48.7,56.7,51.5,46.6,93,70,38,29.83,29.72,11,1,11,0.00
2012-10-22,80.5,66.1,54.1,61.3,54.5,49.7,94,70,35,29.91,29.80,16,1,16,0.00
2012-10-23,79.4,65.5,52.8,63.7,56.4,50.9,94,75,46,29.87,29.75,13,1,14,0.00
2012-10-24,80.5,65.9,55.3,69.3,60.2,53.5,94,83,56,29.88,29.75,10,1,12,0.00
2012-10-25,79.5,68.3,58.4,67.7,61.5,56.3,94,80,58,29.78,29.69,14,1,17,0.00
2012-10-26,66.7,48.9,44.0,62.8,45.8,40.2,94,89,80,29.97,29.73,12,1,12,0.61
2012-10-27,54.0,47.6,41.3,41.4,38.1,35.4,80,70,55,29.95,29.85,15,1,15,0.00
2012-10-28,55.8,46.8,38.5,39.1,36.4,33.8,87,69,44,29.97,29.87,12,1,12,0.00
2012-10-29,55.6,44.2,34.4,37.2,33.9,28.5,93,70,36,30.03,29.85,11,0,12,0.00
2012-10-30,59.4,44.3,32.6,40.0,33.6,27.8,94,71,33,29.85,29.69,8,0,8,0.00
2012-10-31,62.9,48.5,36.6,45.3,38.0,33.0,94,72,36,29.78,29.71,7,0,9,0.00
2012-11-1,65.6,49.2,35.5,46.3,38.8,30.2,94,73,32,29.86,29.74,5,0,6,0.00
2012-11-2,74.2,56.1,41.6,55.9,47.7,40.0,94,77,44,29.80,29.72,9,0,9,0.00
2012-11-3,82.3,62.3,47.0,65.9,55.5,45.4,96,81,52,29.88,29.68,22,0,22,1.00
2012-11-4,59.0,49.1,38.6,47.8,40.9,36.8,93,75,46,29.97,29.86,7,0,8,0.00
2012-11-5,55.5,46.1,37.3,45.7,41.4,35.6,100,85,55,29.91,29.72,8,0,10,0.08
2012-11-6,54.9,48.1,40.9,47.9,44.5,39.3,100,88,73,29.87,29.76,6,0,7,0.01
2012-11-7,54.5,44.5,34.1,45.0,38.3,32.3,95,81,53,29.96,29.76,12,0,12,0.02
2012-11-8,58.6,42.8,30.1,43.9,36.6,28.6,100,81,49,30.06,29.93,7,0,7,0.00
2012-11-9,69.7,54.0,38.0,51.1,43.6,36.4,100,71,48,30.02,29.88,11,1,11,0.00
2012-11-10,72.9,60.2,45.5,57.4,50.8,42.7,94,73,49,30.02,29.86,14,2,16,0.00
2012-11-11,75.5,65.9,54.4,61.9,57.8,52.5,94,76,55,29.91,29.72,23,6,25,0.93
2012-11-12,54.3,43.9,30.4,52.6,37.2,27.7,94,79,44,30.24,29.84,9,1,10,0.36
2012-11-13,52.3,40.3,27.4,38.0,28.8,25.5,94,67,37,30.30,30.17,10,0,10,0.00
2012-11-14,50.5,41.1,32.0,36.7,32.2,28.4,93,72,54,30.19,30.08,7,0,7,0.00
2012-11-15,56.4,42.4,29.6,39.7,34.6,28.1,100,77,49,30.15,30.05,7,0,7,0.00
2012-11-16,59.0,43.4,30.7,38.3,33.4,29.2,94,72,36,30.19,30.10,9,0,9,0.00
2012-11-17,62.3,44.9,31.7,39.4,34.5,29.4,93,71,35,30.23,30.12,6,0,6,0.00
2012-11-18,64.1,44.9,30.5,42.7,36.0,29.0,94,75,37,30.18,30.07,9,1,9,0.00
2012-11-19,66.3,50.3,33.6,45.4,40.4,32.1,94,73,41,30.10,29.96,6,0,6,0.00
2012-11-20,71.1,56.0,44.0,52.0,47.1,42.1,94,75,45,29.97,29.84,7,0,8,0.00
2012-11-21,66.9,52.7,39.7,50.5,45.6,37.8,94,79,51,30.04,29.90,7,0,9,0.00
2012-11-22,70.8,51.2,34.4,52.1,43.4,32.9,95,77,47,30.00,29.87,10,1,12,0.00
2012-11-23,59.4,52.8,41.2,53.7,40.9,27.7,94,66,37,30.10,29.91,11,2,13,0.35
2012-11-24,45.8,36.5,27.5,28.1,24.6,22.3,91,64,40,30.16,29.94,7,0,7,0.00
2012-11-25,58.1,43.9,26.4,33.4,29.4,24.4,92,61,35,29.95,29.78,12,1,12,0.00
2012-11-26,55.8,49.2,38.9,54.1,44.8,31.8,94,85,64,29.98,29.80,10,1,12,0.38
2012-11-27,46.4,38.7,28.5,42.6,34.1,26.9,96,84,66,30.16,29.97,13,1,16,0.04
2012-11-28,52.4,35.6,24.9,39.5,22.8,-99.9,94,72,42,30.27,30.14,6,-52,7,0.00
2012-11-29,60.5,41.3,26.8,36.1,30.0,25.2,94,70,30,30.16,30.01,10,1,12,0.00
2012-11-30,65.2,49.6,32.9,50.6,42.5,30.8,94,78,55,30.06,29.95,12,1,12,0.00
2012-12-1,71.3,60.3,43.2,54.1,50.0,40.8,93,70,53,30.01,29.88,15,3,15,0.00
2012-12-2,70.3,64.5,58.7,62.9,59.8,51.2,94,85,71,30.00,29.89,15,2,16,0.00
2012-12-3,74.2,66.5,59.5,61.7,58.5,56.8,94,77,56,29.95,29.82,17,4,17,0.00
2012-12-4,71.0,63.1,54.1,64.9,59.5,52.4,94,88,75,29.99,29.85,14,1,14,0.58
2012-12-5,63.3,54.4,43.3,52.6,45.4,40.1,95,73,47,30.05,29.86,11,1,11,0.00
2012-12-6,44.2,0.5,44.0,41.5,-98.3,-99.9,90,1,90,29.86,29.71,0,-987,0,0.00
2012-12-7,68.8,19.0,60.3,61.5,-53.8,-99.9,94,23,69,29.73,29.60,10,-709,11,0.01
2012-12-8,-200.0,0.0,200.0,-99.9,-99.9,-99.9,0,0,100,29.72,29.64,0,-999,0,0.00
2012-12-9,71.5,24.2,58.3,65.4,-41.5,-99.9,94,30,78,29.68,29.52,13,-637,14,0.77
2012-12-10,58.1,42.0,33.9,56.4,37.0,26.5,95,83,70,29.86,29.53,17,1,17,0.44
2012-12-11,44.0,34.5,26.2,29.8,26.1,21.8,92,73,42,30.04,29.85,7,0,8,0.00
2012-12-12,51.1,34.7,23.5,32.2,24.6,20.5,94,72,31,30.15,30.03,7,0,7,0.00
2012-12-13,57.7,37.5,23.5,34.3,27.0,21.8,99,71,28,30.17,30.04,6,0,6,0.00
2012-12-14,59.1,45.4,26.4,47.6,34.9,24.7,94,70,41,30.08,29.84,11,1,11,0.13
2012-12-15,63.0,56.9,49.6,60.3,53.7,47.1,93,89,85,29.85,29.60,17,5,20,0.08
2012-12-16,62.7,60.5,58.4,60.6,58.6,56.6,94,93,91,29.62,29.47,12,2,12,0.01
2012-12-17,65.0,53.8,34.6,57.6,49.6,33.1,95,87,58,29.64,29.42,10,1,13,0.01
2012-12-18,63.3,46.3,30.7,46.0,38.3,29.1,95,77,46,29.72,29.60,14,1,20,0.00
2012-12-19,69.6,57.6,43.4,55.7,47.6,40.3,93,71,44,29.74,29.46,17,2,21,0.00
2012-12-20,65.2,49.1,37.6,62.8,37.9,21.8,92,66,48,29.93,29.27,20,3,21,0.22
2012-12-21,46.1,36.1,25.7,24.0,20.4,15.3,87,55,30,30.12,29.92,13,1,14,0.00
2012-12-22,61.4,42.1,23.0,33.3,27.9,21.0,94,62,26,30.11,29.88,8,0,8,0.00
2012-12-23,55.5,50.0,38.1,53.8,44.8,30.4,98,83,59,29.89,29.60,7,0,9,0.20
2012-12-24,56.7,53.5,44.2,55.3,50.7,37.1,95,90,76,29.76,29.55,7,0,9,0.03
2012-12-25,44.1,37.2,33.9,37.2,34.3,30.5,94,89,76,29.79,29.29,21,2,21,0.64
2012-12-26,35.9,31.8,30.0,34.3,29.5,27.1,100,91,82,29.98,29.30,16,2,19,0.06
2012-12-27,41.4,32.8,24.8,32.8,28.6,23.3,95,85,68,29.99,29.80,6,0,7,0.01
2012-12-28,42.7,37.2,33.7,41.4,35.6,30.3,100,94,87,29.85,29.55,11,1,11,0.68
2012-12-29,36.0,32.0,23.0,34.4,27.2,21.3,95,83,71,30.20,29.72,9,1,10,0.00
2012-12-30,42.1,30.2,19.4,31.2,25.0,17.7,95,82,55,30.31,30.10,7,0,7,0.00
2012-12-31,45.9,39.3,31.1,42.0,33.3,28.9,92,80,60,30.10,29.76,10,1,12,0.07